[[{"header":{"parameterUnit":"m.s-1","parameterCategory":1,"la1":30.2991,"la2":30.254,"lo1":-89.0895,"lo2":-89.0444,"dy":0.0017,"dx":0.0017,"nx":28,"ny":28,"refTime":"2025-11-09T09:00:00:Z","depth":0,"parameterNumber":2,"parameterNumberName":"U-component_of_WINDS"},"data":[0,0,0,0,0,0,0,0,0,0,0,0,0,0,0,0,0,0,0,0,0,0,0,0,0,0,0,0,0,0,0,0,0,0,0,0,0,0,0,0,0,0,0,0,0,0,0,0,0,0,0,0,0,0,0,0,0,0,2.4224,2.4225,0,2.4255,2.4256,2.4256,2.4214,2.4213,2.4211,2.421,2.4242,2.4245,2.4247,0,0,0,0,0,0,0,0,0,0,0,0,0,2.413,2.4132,2.4224,2.4225,2.4225,2.4255,2.4256,2.4256,2.4215,2.4213,2.4211,2.4209,2.4242,2.4244,2.4247,0,0,0,0,0,0,0,0,0,0,0,0,0,2.4167,2.4133,2.4224,2.4208,2.4207,2.4255,2.4256,2.4256,2.4215,2.4213,2.421,2.4208,2.4241,2.4244,2.4247,2.4314,0,0,2.4258,2.4259,0,0,0,0,0,0,0,0,2.4165,2.4171,2.421,2.4209,2.4208,2.4229,2.4235,2.4276,2.4215,2.4212,2.421,2.4207,2.424,2.4243,2.4254,2.4315,2.4317,2.4258,2.426,2.4262,2.4263,0,0,0,0,0,0,0,2.4163,2.4169,2.4237,2.4211,2.4209,2.4199,2.4202,2.4242,2.4238,2.4212,2.4209,2.4213,2.4239,2.4251,2.4254,2.4317,2.4258,2.4261,2.4263,2.4264,2.4436,2.4439,0,0,0,0,0,0,2.4162,2.4167,2.4236,2.4238,2.418,2.4203,2.4206,2.4224,2.4238,2.4237,2.4215,2.4211,2.4246,2.425,2.4255,2.4335,2.4262,2.4265,2.4267,2.4434,2.4437,2.444,0,0,0,0,0,0,2.416,2.4168,2.4234,2.4202,2.4209,2.4207,2.4228,2.4226,2.4238,2.424,2.4239,2.4228,2.4244,2.425,2.43,2.4335,2.4266,2.4269,2.4431,2.4435,2.4438,2.4494,0,0,0,0,0,0,2.4157,2.4168,2.4193,2.4202,2.4211,2.4278,2.423,2.4228,2.4244,2.4239,2.4252,2.4252,2.4243,2.4295,2.4303,2.4339,2.4272,2.4428,2.4433,2.4437,2.4489,2.4499,2.4508,0,0,0,0,0,2.4154,2.4207,2.4194,2.4203,2.4242,2.428,2.4285,2.4274,2.4247,2.4272,2.4274,2.4251,2.433,2.43,2.4309,2.4347,2.4425,2.4431,2.4437,2.4485,2.4497,2.4508,0,0,0,0,0,0,2.4201,2.4208,2.4194,2.4251,2.4265,2.4273,2.4304,2.4287,2.431,2.4304,2.429,2.4293,2.4346,2.4351,2.4318,2.4412,2.4373,2.4381,2.4407,2.4419,2.4428,2.4426,2.4275,0,0,0,0,0,2.4218,2.4248,2.4252,2.4303,2.4311,2.4307,2.4323,2.4313,2.4327,2.4333,2.4338,2.4353,2.4382,2.44,2.4426,2.449,2.4493,2.452,2.4529,2.4537,2.4544,2.458,2.4592,2.4458,2.4458,2.4458,0,0,2.4253,2.4261,2.4281,2.4312,2.4322,2.4355,2.4312,2.4347,2.4371,2.4338,2.4386,2.439,2.4406,2.4463,2.4489,2.4469,2.4582,2.4544,2.4551,2.4553,2.4587,2.4599,2.4611,2.4462,2.4461,2.4461,0,0,2.4335,2.4343,2.4386,2.4397,2.4413,2.441,2.4421,2.4431,2.4433,2.448,2.4457,2.4485,2.4534,2.4547,2.456,2.4648,2.4628,2.4657,2.4706,2.4741,2.4752,2.4761,2.4793,2.4805,2.4663,2.4664,2.4664,0,2.4377,2.4424,2.4411,2.4448,2.4464,2.4436,2.448,2.4492,2.4515,2.4527,2.4505,2.4566,2.4575,2.4635,2.4657,2.4668,2.468,2.4655,2.4751,2.476,2.4769,2.4799,2.4812,2.4667,2.4667,2.4666,2.4666,0,2.4475,2.4509,2.4542,2.4566,2.4585,2.4626,2.4619,2.464,2.4629,2.4629,2.4678,2.4688,2.4716,2.473,2.4719,2.4789,2.4777,2.4753,2.4714,2.4785,2.4814,2.4825,2.4672,2.4671,2.467,2.4669,0,0,2.4586,2.4603,2.4616,2.4627,2.4643,2.4669,2.4709,2.4737,2.4755,2.4773,2.4807,2.485,2.4828,2.4843,2.4834,2.4864,2.4935,2.4837,2.4837,2.4856,2.5014,2.5032,2.5046,2.4922,2.4924,2.4926,2.5013,0,2.4668,2.4737,2.4728,2.4795,2.4826,2.48,2.4836,2.485,2.4851,2.4878,2.4879,2.491,2.4879,2.4888,2.4917,2.492,2.4966,2.4913,2.4954,2.4956,2.4952,2.5061,2.508,2.5161,2.5024,2.5026,2.5027,0,2.4773,2.4795,2.4865,2.4878,2.489,2.4922,2.4947,2.4973,2.4989,2.4988,2.5006,2.4991,2.5032,2.4992,2.505,2.5014,2.503,2.5034,2.5037,2.5041,2.4996,2.5068,2.5187,2.52,2.5045,2.5043,2.5042,0,2.4848,2.4895,2.4944,2.4954,2.4969,2.4992,2.5,2.5014,2.5031,2.5054,2.5065,2.5092,2.5107,2.5129,2.5123,2.5094,2.5182,2.5141,2.5183,2.5183,2.5203,2.5202,2.5326,2.5212,2.5212,2.5212,2.5212,0,2.4941,2.4985,2.4978,2.5008,2.5057,2.5045,2.5095,2.5099,2.5112,2.5143,2.5123,2.5152,2.5142,2.5171,2.5167,2.5216,2.5222,2.5223,2.5221,2.5225,2.5225,2.5236,2.523,2.5215,2.5214,2.5214,2.5213,0,2.5034,2.503,2.5081,2.5092,2.5096,2.5132,2.5141,2.517,2.517,2.5209,2.5218,2.5218,2.5252,2.5248,2.5285,2.5282,2.5343,2.5334,2.5338,2.5336,2.5379,2.5375,2.5515,2.5534,2.5407,2.5408,2.5409,0,2.5093,2.5127,2.5142,2.5161,2.517,2.5201,2.522,2.521,2.523,2.5252,2.5278,2.531,2.5334,2.539,2.5394,2.5422,2.5415,2.5462,2.5419,2.5422,2.5417,2.5415,2.5419,2.547,2.5472,2.5473,2.5474,0,2.52,2.5197,2.5224,2.5251,2.5273,2.5294,2.5313,2.533,2.5322,2.5346,2.538,2.5399,2.5438,2.547,2.5498,2.5506,2.549,2.5488,2.5499,2.5503,2.5505,2.5506,2.5362,2.5484,2.5483,2.5483,2.5482,2.5482,2.5279,2.5308,2.5323,2.5354,2.5367,2.5386,2.5413,2.5417,2.5445,2.5476,2.5469,2.5508,2.5524,2.556,2.5571,2.5602,2.5585,2.5601,2.5605,2.561,2.5615,2.5499,2.5607,2.5607,2.5606,2.5606,2.5606,0,2.5386,2.5395,2.5423,2.545,2.5475,2.5457,2.5477,2.5499,2.5533,2.555,2.5575,2.5615,2.5647,2.5654,2.5684,2.5708,2.5701,2.5716,2.5714,2.5717,2.5628,2.5616,2.5721,2.5721,2.5721,2.5721,2.5721,2.5721,2.5444,2.5493,2.5492,2.5548,2.5556,2.5594,2.5607,2.5624,2.5638,2.5683,2.5709,2.5713,2.5727,2.5758,2.5787,2.5788,2.58,2.5819,2.5817,2.5734,2.5723,2.5712,2.57,2.5822,2.5822,2.5903,2.5904,2.5905]},{"header":{"parameterUnit":"m.s-1","parameterCategory":1,"la1":30.2991,"la2":30.254,"lo1":-89.0895,"lo2":-89.0444,"dy":0.0017,"dx":0.0017,"nx":28,"ny":28,"refTime":"2025-11-09T09:00:00:Z","depth":0,"parameterNumber":3,"parameterNumberName":"V-component_of_WINDS"},"data":[0,0,0,0,0,0,0,0,0,0,0,0,0,0,0,0,0,0,0,0,0,0,0,0,0,0,0,0,0,0,0,0,0,0,0,0,0,0,0,0,0,0,0,0,0,0,0,0,0,0,0,0,0,0,0,0,0,0,-2.4763,-2.4762,0,-2.4671,-2.467,-2.4669,-2.4685,-2.4686,-2.4688,-2.469,-2.459,-2.4586,-2.4582,0,0,0,0,0,0,0,0,0,0,0,0,0,-2.4951,-2.4948,-2.4763,-2.4762,-2.4761,-2.4671,-2.467,-2.4668,-2.4685,-2.4687,-2.4689,-2.469,-2.4592,-2.4587,-2.4582,0,0,0,0,0,0,0,0,0,0,0,0,0,-2.4865,-2.4947,-2.4763,-2.4758,-2.4757,-2.4671,-2.4669,-2.4668,-2.4684,-2.4687,-2.4689,-2.4691,-2.4593,-2.4587,-2.4581,-2.4493,0,0,-2.4562,-2.4559,0,0,0,0,0,0,0,0,-2.487,-2.4858,-2.476,-2.4758,-2.4757,-2.4692,-2.4699,-2.4609,-2.4683,-2.4712,-2.469,-2.4693,-2.4622,-2.4613,-2.459,-2.4488,-2.4484,-2.4561,-2.4557,-2.4555,-2.4553,0,0,0,0,0,0,0,-2.4876,-2.4862,-2.4726,-2.4759,-2.4757,-2.476,-2.475,-2.4682,-2.4654,-2.4709,-2.471,-2.4699,-2.4621,-2.4596,-2.4588,-2.4482,-2.4561,-2.4556,-2.4552,-2.4549,-2.4305,-2.4302,0,0,0,0,0,0,-2.4884,-2.4867,-2.4729,-2.4724,-2.4821,-2.4754,-2.4744,-2.471,-2.4655,-2.4649,-2.4697,-2.4701,-2.4606,-2.4595,-2.4585,-2.4478,-2.4555,-2.4549,-2.4545,-2.4308,-2.4304,-2.4301,0,0,0,0,0,0,-2.4888,-2.4872,-2.4733,-2.4796,-2.4778,-2.4749,-2.4711,-2.4707,-2.4682,-2.4646,-2.464,-2.4677,-2.4607,-2.4593,-2.4516,-2.4475,-2.4546,-2.454,-2.4311,-2.4307,-2.4303,-2.4264,0,0,0,0,0,0,-2.4893,-2.4873,-2.4839,-2.4795,-2.4775,-2.4667,-2.4708,-2.4703,-2.4672,-2.4675,-2.4625,-2.4619,-2.4608,-2.4526,-2.451,-2.4468,-2.4535,-2.4314,-2.4309,-2.4304,-2.4269,-2.4259,-2.4251,0,0,0,0,0,-2.49,-2.4831,-2.4838,-2.4821,-2.4733,-2.4664,-2.4653,-2.4642,-2.4668,-2.4634,-2.4611,-2.4621,-2.4483,-2.4517,-2.45,-2.4455,-2.4317,-2.4311,-2.4305,-2.4273,-2.4261,-2.4251,0,0,0,0,0,0,-2.4869,-2.4825,-2.4832,-2.4746,-2.4709,-2.4667,-2.4623,-2.463,-2.4583,-2.4588,-2.4576,-2.4565,-2.4486,-2.4463,-2.4503,-2.4368,-2.4403,-2.4393,-2.4385,-2.4374,-2.4365,-2.4371,-2.453,0,0,0,0,0,-2.4853,-2.4802,-2.4766,-2.4694,-2.4675,-2.4653,-2.4622,-2.4618,-2.4579,-2.4562,-2.4533,-2.4493,-2.4441,-2.4407,-2.4356,-2.4267,-2.4256,-2.4228,-2.4219,-2.4212,-2.4202,-2.4154,-2.4141,-2.4281,-2.4281,-2.4281,0,0,-2.4817,-2.4787,-2.4755,-2.4687,-2.4658,-2.4604,-2.4639,-2.4581,-2.4541,-2.4553,-2.4478,-2.4456,-2.4411,-2.4328,-2.4289,-2.4306,-2.4162,-2.4204,-2.4198,-2.4193,-2.4146,-2.4133,-2.4121,-2.4277,-2.4278,-2.4279,0,0,-2.4725,-2.4698,-2.4635,-2.4606,-2.4562,-2.4548,-2.4534,-2.4491,-2.4477,-2.4403,-2.4412,-2.4364,-2.4274,-2.4242,-2.4213,-2.4114,-2.412,-2.4098,-2.4049,-2.4002,-2.3991,-2.3981,-2.3945,-2.3932,-2.4089,-2.4089,-2.4089,0,-2.4686,-2.4607,-2.4602,-2.4543,-2.4513,-2.4525,-2.4461,-2.4433,-2.4374,-2.4352,-2.4373,-2.4261,-2.4232,-2.4141,-2.4117,-2.4094,-2.4076,-2.4101,-2.3994,-2.3984,-2.3974,-2.3939,-2.3926,-2.4086,-2.4087,-2.4087,-2.4087,0,-2.4561,-2.4507,-2.4462,-2.4407,-2.4372,-2.4311,-2.4296,-2.4261,-2.4261,-2.4245,-2.417,-2.4136,-2.4079,-2.4058,-2.4056,-2.3967,-2.3979,-2.3997,-2.4031,-2.3958,-2.3925,-2.3912,-2.4083,-2.4084,-2.4084,-2.4085,0,0,-2.4443,-2.4389,-2.4372,-2.4348,-2.4303,-2.426,-2.42,-2.4147,-2.4117,-2.4078,-2.4027,-2.3952,-2.3969,-2.3937,-2.3933,-2.3892,-2.3814,-2.3914,-2.3913,-2.3896,-2.3714,-2.3699,-2.3684,-2.382,-2.3818,-2.3816,-2.3717,0,-2.4346,-2.4242,-2.4237,-2.4141,-2.4091,-2.4103,-2.4051,-2.4017,-2.4002,-2.3956,-2.3939,-2.3886,-2.3912,-2.3893,-2.3854,-2.3832,-2.3777,-2.384,-2.3771,-2.3769,-2.378,-2.3667,-2.365,-2.3559,-2.3704,-2.3702,-2.3701,0,-2.4218,-2.4176,-2.4077,-2.404,-2.4019,-2.3972,-2.3924,-2.3881,-2.3843,-2.3835,-2.3801,-2.3803,-2.3742,-2.3781,-2.3696,-2.3739,-2.3711,-2.3697,-2.3693,-2.3684,-2.3728,-2.3653,-2.3529,-2.3515,-2.368,-2.3682,-2.3683,0,-2.414,-2.406,-2.399,-2.3969,-2.3925,-2.3892,-2.3872,-2.3837,-2.3806,-2.3764,-2.3744,-2.3694,-2.3667,-2.3629,-2.3617,-2.3648,-2.3533,-2.3571,-2.3523,-2.3523,-2.3495,-2.3496,-2.3363,-2.3481,-2.3481,-2.3482,-2.3482,0,-2.4031,-2.3969,-2.3955,-2.3911,-2.3843,-2.3838,-2.377,-2.3752,-2.3722,-2.3675,-2.3683,-2.3638,-2.3627,-2.3581,-2.3572,-2.3503,-2.3491,-2.3481,-2.3479,-2.3479,-2.348,-2.3459,-2.3464,-2.3478,-2.3479,-2.3479,-2.348,0,-2.3931,-2.3919,-2.3844,-2.381,-2.38,-2.3751,-2.3721,-2.3679,-2.3666,-2.3607,-2.3593,-2.3572,-2.3518,-2.3504,-2.3439,-2.3433,-2.3351,-2.3356,-2.3364,-2.3363,-2.3315,-2.3319,-2.3161,-2.314,-2.3274,-2.3272,-2.3271,0,-2.3861,-2.3814,-2.3776,-2.3746,-2.3725,-2.3676,-2.3645,-2.364,-2.3607,-2.3563,-2.3526,-2.3474,-2.3431,-2.3345,-2.3323,-2.3273,-2.3276,-2.3225,-2.3268,-2.327,-2.3273,-2.3275,-2.327,-2.3215,-2.3214,-2.3212,-2.3212,0,-2.3737,-2.3734,-2.369,-2.3645,-2.3609,-2.3572,-2.3537,-2.3512,-2.3502,-2.3465,-2.3411,-2.3378,-2.3314,-2.3261,-2.3212,-2.3191,-2.3198,-2.3199,-2.3184,-2.3182,-2.3188,-2.3183,-2.3339,-2.3201,-2.3202,-2.3203,-2.3204,-2.3204,-2.3648,-2.3608,-2.3575,-2.3526,-2.35,-2.3468,-2.3428,-2.3411,-2.3367,-2.3314,-2.3314,-2.3255,-2.3221,-2.3156,-2.3132,-2.3086,-2.3101,-2.3081,-2.3075,-2.307,-2.3065,-2.3199,-2.3077,-2.3077,-2.3077,-2.3078,-2.3078,0,-2.3524,-2.3504,-2.346,-2.3412,-2.3374,-2.3389,-2.3351,-2.3318,-2.3266,-2.3234,-2.3193,-2.3132,-2.3082,-2.3058,-2.3008,-2.2976,-2.2978,-2.2963,-2.2964,-2.2959,-2.3054,-2.3071,-2.2962,-2.2962,-2.2962,-2.2962,-2.2962,-2.2962,-2.3454,-2.3386,-2.338,-2.33,-2.3281,-2.3224,-2.3202,-2.3172,-2.3147,-2.3078,-2.3037,-2.3023,-2.2994,-2.2943,-2.2898,-2.2892,-2.2873,-2.2855,-2.2851,-2.294,-2.2952,-2.2963,-2.2978,-2.2851,-2.2851,-2.2759,-2.2758,-2.2757]}]]